Time,TemperatureF,DewpointF,PressureIn,WindDirection,WindDirectionDegrees,WindSpeedMPH,WindSpeedGustMPH,Humidity,HourlyPrecipIn,Conditions,Clouds,dailyrainin,SoftwareType,DateUTC
2013-04-26 00:00:00,25.0,-99.9,-100.00,West,263,7.0,7.0,-999,-99.99,,,-99.99,,2013-04-26 06:00:00,
2013-04-26 00:52:00,25.0,-99.9,-100.00,West,263,7.0,7.0,-999,-99.99,,,-99.99,,2013-04-26 06:52:00,
2013-04-26 01:00:00,25.0,-99.9,-100.00,West,273,6.0,7.0,-999,-99.99,,,-99.99,,2013-04-26 07:00:00,
2013-04-26 01:52:00,25.0,-99.9,-100.00,West,273,6.0,7.0,-999,-99.99,,,-99.99,,2013-04-26 07:52:00,
2013-04-26 02:00:00,25.0,-99.9,-100.00,West,260,11.0,13.0,-999,-99.99,,,-99.99,,2013-04-26 08:00:00,
2013-04-26 02:52:00,25.0,-99.9,-100.00,West,260,11.0,13.0,-999,-99.99,,,-99.99,,2013-04-26 08:52:00,
2013-04-26 03:00:00,25.0,-99.9,-100.00,WSW,242,7.0,8.0,-999,-99.99,,,-99.99,,2013-04-26 09:00:00,
2013-04-26 03:53:00,25.0,-99.9,-100.00,WSW,242,7.0,8.0,-999,-99.99,,,-99.99,,2013-04-26 09:53:00,
2013-04-26 04:00:00,25.0,-99.9,-100.00,WSW,242,6.0,6.0,-999,-99.99,,,-99.99,,2013-04-26 10:00:00,
2013-04-26 04:33:00,25.0,-99.9,-100.00,WSW,242,6.0,6.0,-999,-99.99,,,-99.99,,2013-04-26 10:33:00,
2013-04-26 04:42:00,25.0,-99.9,-100.00,WSW,242,6.0,6.0,-999,-99.99,,,-99.99,,2013-04-26 10:42:00,
2013-04-26 04:52:00,25.0,-99.9,-100.00,WSW,242,6.0,6.0,-999,-99.99,,,-99.99,,2013-04-26 10:52:00,
2013-04-26 05:00:00,23.0,-99.9,-100.00,WSW,238,8.0,8.0,-999,-99.99,,,-99.99,,2013-04-26 11:00:00,
2013-04-26 05:52:00,23.0,-99.9,-100.00,WSW,238,8.0,8.0,-999,-99.99,,,-99.99,,2013-04-26 11:52:00,
2013-04-26 06:00:00,23.0,-99.9,-100.00,WSW,244,8.0,8.0,-999,-99.99,,,-99.99,,2013-04-26 12:00:00,
2013-04-26 06:52:00,23.0,-99.9,-100.00,WSW,244,8.0,8.0,-999,-99.99,,,-99.99,,2013-04-26 12:52:00,
2013-04-26 07:00:00,27.0,-99.9,-100.00,West,262,7.0,8.0,-999,-99.99,,,-99.99,,2013-04-26 13:00:00,
2013-04-26 07:52:00,27.0,-99.9,-100.00,West,262,7.0,8.0,-999,-99.99,,,-99.99,,2013-04-26 13:52:00,
2013-04-26 08:00:00,37.0,-99.9,-100.00,WSW,247,5.0,6.0,-999,-99.99,,,-99.99,,2013-04-26 14:00:00,
2013-04-26 08:52:00,37.0,-99.9,-100.00,WSW,247,5.0,6.0,-999,-99.99,,,-99.99,,2013-04-26 14:52:00,
2013-04-26 09:00:00,39.0,-99.9,-100.00,SW,227,8.0,9.0,-999,-99.99,,,-99.99,,2013-04-26 15:00:00,
2013-04-26 09:53:00,39.0,-99.9,-100.00,SW,227,8.0,9.0,-999,-99.99,,,-99.99,,2013-04-26 15:53:00,
2013-04-26 10:00:00,41.0,-99.9,-100.00,WSW,238,7.0,9.0,-999,-99.99,,,-99.99,,2013-04-26 16:00:00,
2013-04-26 10:53:00,41.0,-99.9,-100.00,WSW,238,7.0,9.0,-999,-99.99,,,-99.99,,2013-04-26 16:53:00,
2013-04-26 11:00:00,45.0,-99.9,-100.00,SW,217,3.0,7.0,-999,-99.99,,,-99.99,,2013-04-26 17:00:00,
2013-04-26 11:52:00,45.0,-99.9,-100.00,SW,217,3.0,7.0,-999,-99.99,,,-99.99,,2013-04-26 17:52:00,
2013-04-26 12:00:00,50.0,-99.9,-100.00,ESE,119,6.0,8.0,-999,-99.99,,,-99.99,,2013-04-26 18:00:00,
2013-04-26 12:52:00,50.0,-99.9,-100.00,ESE,119,6.0,8.0,-999,-99.99,,,-99.99,,2013-04-26 18:52:00,
2013-04-26 13:00:00,54.0,-99.9,-100.00,East,80,0.0,11.0,-999,-99.99,,,-99.99,,2013-04-26 19:00:00,
2013-04-26 13:52:00,54.0,-99.9,-100.00,East,80,0.0,11.0,-999,-99.99,,,-99.99,,2013-04-26 19:52:00,
2013-04-26 14:00:00,55.0,-99.9,-100.00,ESE,112,3.0,9.0,-999,-99.99,,,-99.99,,2013-04-26 20:00:00,
2013-04-26 14:52:00,55.0,-99.9,-100.00,ESE,112,3.0,9.0,-999,-99.99,,,-99.99,,2013-04-26 20:52:00,
2013-04-26 15:00:00,52.0,-99.9,-100.00,WSW,254,1.0,6.0,-999,-99.99,,,-99.99,,2013-04-26 21:00:00,
2013-04-26 15:53:00,52.0,-99.9,-100.00,WSW,254,1.0,6.0,-999,-99.99,,,-99.99,,2013-04-26 21:53:00,
2013-04-26 16:00:00,50.0,-99.9,-100.00,SW,235,7.0,9.0,-999,-99.99,,,-99.99,,2013-04-26 22:00:00,
2013-04-26 16:52:00,50.0,-99.9,-100.00,SW,235,7.0,9.0,-999,-99.99,,,-99.99,,2013-04-26 22:52:00,
2013-04-26 17:00:00,46.0,-99.9,-100.00,West,274,11.0,17.0,-999,-99.99,,,-99.99,,2013-04-26 23:00:00,
2013-04-26 17:52:00,46.0,-99.9,-100.00,West,274,11.0,17.0,-999,-99.99,,,-99.99,,2013-04-26 23:52:00,
2013-04-26 18:00:00,52.0,-99.9,-100.00,East,81,7.0,9.0,-999,-99.99,,,-99.99,,2013-04-27 00:00:00,
2013-04-26 18:52:00,52.0,-99.9,-100.00,East,81,7.0,9.0,-999,-99.99,,,-99.99,,2013-04-27 00:52:00,
2013-04-26 19:00:00,57.0,-99.9,-100.00,ENE,77,7.0,8.0,-999,-99.99,,,-99.99,,2013-04-27 01:00:00,
2013-04-26 19:32:00,57.0,-99.9,-100.00,ENE,77,7.0,8.0,-999,-99.99,,,-99.99,,2013-04-27 01:32:00,
2013-04-26 19:42:00,57.0,-99.9,-100.00,ENE,77,7.0,8.0,-999,-99.99,,,-99.99,,2013-04-27 01:42:00,
2013-04-26 19:52:00,57.0,-99.9,-100.00,ENE,77,7.0,8.0,-999,-99.99,,,-99.99,,2013-04-27 01:52:00,
2013-04-26 20:00:00,41.0,-99.9,-100.00,WSW,251,5.0,5.0,-999,-99.99,,,-99.99,,2013-04-27 02:00:00,
2013-04-26 20:52:00,41.0,-99.9,-100.00,WSW,251,5.0,5.0,-999,-99.99,,,-99.99,,2013-04-27 02:52:00,
2013-04-26 21:00:00,30.0,-99.9,-100.00,WSW,246,4.0,5.0,-999,-99.99,,,-99.99,,2013-04-27 03:00:00,
2013-04-26 21:53:00,30.0,-99.9,-100.00,WSW,246,4.0,5.0,-999,-99.99,,,-99.99,,2013-04-27 03:53:00,
2013-04-26 22:00:00,30.0,-99.9,-100.00,WSW,250,5.0,6.0,-999,-99.99,,,-99.99,,2013-04-27 04:00:00,
2013-04-26 22:53:00,30.0,-99.9,-100.00,WSW,250,5.0,6.0,-999,-99.99,,,-99.99,,2013-04-27 04:53:00,
2013-04-26 23:00:00,28.0,-99.9,-100.00,WSW,250,5.0,5.0,-999,-99.99,,,-99.99,,2013-04-27 05:00:00,
2013-04-26 23:52:00,28.0,-99.9,-100.00,WSW,250,5.0,5.0,-999,-99.99,,,-99.99,,2013-04-27 05:52:00,